Weather History for Ogden, UT

Change the Weather History Date:

Tuesday, October 2, 2012

  Actual Average Record
Temperature  
Mean Temperature 65 °F -  
Max Temperature 79 °F 73 °F 88 °F (1992)
Min Temperature 51 °F 43 °F 31 °F (1950)
Growing Degree Days 15 (Base 50)    
Moisture  
Dew Point 31 °F    
Average Humidity 30    
Maximum Humidity 46    
Minimum Humidity 15    
Precipitation  
Precipitation 0.00 in - - ()
Sea Level Pressure  
Sea Level Pressure 29.93 in    
Wind  
Wind Speed 8 mph (South)    
Max Wind Speed 13 mph    
Max Gust Speed -    
Visibility 10 miles    
Events      
Averages and records for this station are not official NWS values.
T = Trace of Precipitation, MM = Missing Value Source: NWS Daily Summary

Daily Weather History Graph

Daily Weather History Graph

Search for Another Location

Airport:

Trip Planner

Search our weather history database for the weather conditions in past years. The results will help you decide how hot, cold, wet, or windy it might be!

Date:

Astronomy

Oct. 02, 2012 Rise Set
Actual Time 7:26 AM MDT 7:07 PM MDT
Civil Twilight 6:58 AM MDT 7:34 PM MDT
Nautical Twilight 6:26 AM MDT 8:06 PM MDT
Astronomical Twilight 5:54 AM MDT 8:38 PM MDT
Moon 8:20 PM MDT (10/2) 9:58 AM MDT (10/2)
Length of Visible Light 12h 35m
Length of Day
11h 40m
Waning Gibbous, 94% of the Moon is Illuminated
Oct 2
Waning Gibbous
Oct 8
Last Quarter
Oct 15
New
Oct 21
First Quarter
Oct 29
Full

Hourly Weather History & Observations

Time (MDT) Temp. Dew Point Humidity Pressure Visibility Wind Dir Wind Speed Gust Speed Precip Events Conditions
1:53 AM 55.9 °F 32.0 °F 40% 30.00 in 10.0 mi South 10.4 mph - N/A   Clear
2:53 AM 55.0 °F 30.9 °F 40% 29.99 in 10.0 mi South 9.2 mph - N/A   Clear
3:53 AM 54.0 °F 30.9 °F 41% 29.98 in 10.0 mi South 9.2 mph - N/A   Clear
4:53 AM 53.1 °F 30.9 °F 43% 29.98 in 10.0 mi South 11.5 mph - N/A   Clear
5:53 AM 53.1 °F 30.0 °F 41% 29.97 in 10.0 mi South 12.7 mph - N/A   Clear
6:53 AM 51.1 °F 30.9 °F 46% 29.99 in 10.0 mi South 8.1 mph - N/A   Clear
7:53 AM 51.1 °F 30.9 °F 46% 30.00 in 3.0 mi South 8.1 mph - N/A   Haze
8:53 AM 55.9 °F 32.0 °F 40% 30.01 in 10.0 mi South 9.2 mph - N/A   Clear
9:53 AM 62.1 °F 34.0 °F 35% 30.00 in 10.0 mi SSE 5.8 mph - N/A   Clear
10:06 AM 62.6 °F 33.8 °F 34% 30.12 in 6.0 mi Calm Calm - N/A   Haze
10:53 AM 68.0 °F 34.0 °F 28% 29.99 in 10.0 mi Variable 3.5 mph - N/A   Clear
11:53 AM 73.0 °F 34.0 °F 24% 29.97 in 10.0 mi Variable 3.5 mph - N/A   Clear
12:53 PM 75.0 °F 33.1 °F 22% 29.95 in 10.0 mi South 10.4 mph - N/A   Clear
1:53 PM 75.9 °F 30.9 °F 19% 29.93 in 10.0 mi SSW 8.1 mph - N/A   Clear
2:53 PM 77.0 °F 28.0 °F 17% 29.90 in 10.0 mi Variable 4.6 mph - N/A   Clear
3:53 PM 78.1 °F 28.0 °F 16% 29.88 in 10.0 mi SW 8.1 mph - N/A   Clear
4:53 PM 79.0 °F 28.0 °F 15% 29.86 in 10.0 mi SW 4.6 mph - N/A   Clear
6:53 PM 75.9 °F 30.0 °F 19% 29.83 in 10.0 mi SE 6.9 mph - N/A   Clear
7:53 PM 69.1 °F 32.0 °F 25% 29.83 in 10.0 mi SSE 6.9 mph - N/A   Clear
8:53 PM 64.9 °F 30.9 °F 28% 29.82 in 10.0 mi South 4.6 mph - N/A   Clear
9:53 PM 64.9 °F 28.9 °F 26% 29.81 in 10.0 mi South 10.4 mph - N/A   Clear
10:53 PM 63.0 °F 30.0 °F 29% 29.80 in 10.0 mi South 10.4 mph - N/A   Clear
11:53 PM 64.0 °F 28.9 °F 27% 29.80 in 10.0 mi NNW 5.8 mph - N/A   Clear